Regional Weather Roundup
Issued by NWS

Home | Current Version | Previous Version | Text Only | Print | Product List | Glossary Off
Versions: 1 2 3 4 5 6 7 8 9 10 11 12 13 14 15 16 17 18 19 20 21 22 23 24 25 26 27 28 29 30 31 32 33 34 35 36 37 38 39 40 41 42 43 44 45 46 47 48 49 50

000
ASUS45 KBOU 201907
RWRCO

WEATHER ROUNDUP FOR COLORADO
NATIONAL WEATHER SERVICE DENVER/BOULDER CO
100 PM MDT WED AUG 20 2014

NOTE: "FAIR" INDICATES FEW OR NO CLOUDS BELOW 12000 FEET WITH NO
SIGNIFICANT WEATHER AND/OR OBSTRUCTIONS TO VISIBILITY.

COZ001>005-013-030-031-202000-
...NORTHWEST COLORADO...

CITY           SKY/WX    TMP DP  RH WIND       PRES   REMARKS
CRAIG          LGT RAIN  67  55  65 SW5       30.09R
HAYDEN         CLOUDY    70  48  46 W26G32    30.09S
MEEKER         CLOUDY    66  51  58 W9        30.10S
MOUNT WERNER   NOT AVBL
STEAMBOAT SPGS MOSUNNY   68  51  53 SE7       30.10F
WALDEN         PTSUNNY   64  45  48 SW14G21   30.17F
$$

COZ006>008-011-202000-
...WEST CENTRAL VALLEYS...

CITY           SKY/WX    TMP DP  RH WIND       PRES   REMARKS
GRAND JUNCTION PTSUNNY   74  56  53 VRB5      30.04F
MONTROSE       MOSUNNY   77  52  41 VRB6      30.10F
EAGLE          PTSUNNY   72  48  43 SW14      30.12F
RIFLE          MOSUNNY   75  52  44 W10       30.05F
DELTA          MOSUNNY   81  49  32 W3        30.05F
NUCLA          MOSUNNY   77  43  29 W5        30.14F
$$

COZ017>023-064>068-202000-
...SOUTHWEST COLORADO...

CITY           SKY/WX    TMP DP  RH WIND       PRES   REMARKS
DURANGO        SUNNY     74  41  30 W13G20    30.16F
CORTEZ         SUNNY     76  47  35 NW14      30.15S
PAGOSA SPRINGS   N/A     69  47  46 S5        30.22F
TELLURIDE      NOT AVBL
WOLF CREEK PAS NOT AVBL
$$

COZ009-010-012-014-032>034-037-058>063-202000-
...CENTRAL COLORADO...

CITY           SKY/WX    TMP DP  RH WIND       PRES   REMARKS
ASPEN          PTSUNNY   68  45  43 N6        30.17F
BUENA VISTA    MOSUNNY   74  37  25 W17G23    30.16S
COPPER MTN     CLOUDY    54  41  62 W18G25    30.46S
BERTHOUD PASS  FAIR      45  43  93 MISG      30.49S
COTTONWOOD PAS MOSUNNY   66  32  28 W14G21    30.31R
GUNNISON       MOSUNNY   72  43  35 SW12G17   30.20S
KREMMLING      MOSUNNY   73  41  31 W10G22    30.15F
LEADVILLE      PTSUNNY   59  39  47 N10G21    30.29F
MONARCH PASS   MOSUNNY   52  39  62 W30G36    30.56R
SALIDA         MOSUNNY   77  41  27 SW15G22   30.19F
SUNLIGHT       CLOUDY    54  48  82 CALM      30.40S
WILKERSON PASS NOT AVBL
$$

COZ069>075-202000-
...SAN LUIS VALLEY/SANGRE DE CRISTO MOUNTAINS...

CITY           SKY/WX    TMP DP  RH WIND       PRES   REMARKS
ALAMOSA        SUNNY     76  43  30 VRB7      30.15F
LA VETA PASS   NOT AVBL
SAGUACHE       MOSUNNY   73  41  31 NW10G18   30.17F
$$

COZ035-036-038>040-202000-
...NORTHERN COLORADO FRONT RANGE...

CITY           SKY/WX    TMP DP  RH WIND       PRES   REMARKS
DENVER INTL AP MOSUNNY   82  51  34 E7        29.95F
DMNS CITY PARK   N/A     85  46  25 W3        29.94S
AURORA         MOSUNNY   80  51  36 VRB3      29.98S
FRONT RANGE AP NOT AVBL
ERIE MUNI ARPT SUNNY     86  41  20 NW8       29.92F
BOULDER MUN AP SUNNY     86  41  20 SW17G23   29.93F
CENTENNIAL     PTSUNNY   80  46  30 CALM      29.98F
BROOMFIELD     PTSUNNY   86  45  23 NW10G20   29.98S
FORT COLLINS   MOSUNNY   84  50  30 W7        29.91F
LONGMONT       MOSUNNY   89  41  18 SW15G22   29.93S
$$

COZ041-046-047-076>085-087-088-202000-
...PIKES PEAK/PALMER DIVIDE AND SOUTHERN FOOTHILLS...

CITY           SKY/WX    TMP DP  RH WIND       PRES   REMARKS
COLO. SPRINGS  PTSUNNY   84  48  28 SE10      30.01S
A. F. ACADEMY  PTSUNNY   80  44  27 SW7       30.03S
ELLICOTT       PTSUNNY   81  46  29 SW12      30.00S
FALCON         PTSUNNY   80  44  27 CALM      30.07S
FORT CARSON    CLOUDY    81  48  32 VRB2      29.98S
LIMON          MOSUNNY   84  45  25 CALM      29.95F
MONUMENT HILL  PTSUNNY   73  46  38 W5        30.07S
TRINIDAD       MOSUNNY   86  45  23 W9        29.98S
$$

COZ042>045-048>051-090-091-202000-
...NORTHEAST COLORADO...

CITY           SKY/WX    TMP DP  RH WIND       PRES   REMARKS
GREELEY ARPT   MOSUNNY   84  48  28 CALM      29.92S
AKRON          SUNNY     84  52  33 E8        29.91S
BURLINGTON     PTSUNNY   90  52  27 N6        29.87F
WRAY             N/A     89  51  27 N10       29.84F
STERLING       SUNNY     90  55  31 S8        29.85F
HOLYOKE        NOT AVBL
FORT MORGAN    SUNNY     86  50  28 S7        29.90F
$$

COZ086-089-092>099-202000-
...SOUTHEAST COLORADO...

CITY           SKY/WX    TMP DP  RH WIND       PRES   REMARKS
PUEBLO         PTSUNNY   88  46  23 W5        29.89F
LA JUNTA       PTSUNNY   90  50  25 VRB5      29.86S
LAMAR          PTSUNNY   95  51  22 NW8       29.81F
SPRINGFIELD      N/A     93  46  19 SW14G21   29.87F
$$


USA.gov is the U.S. government's official web portal to all federal, state and local government web resources and services.